BREEZE-M DEB (TANK), 36103

Orbit data source: Space-Track

BREEZE-M DEB (TANK), 36103 is space debris in HEO originally from a launch on Tue, 24 Nov 2009 UTC launched from the Tyuratam Missile And Space Complex (TTMTR). Debris objects in space refer to the collection of defunct objects orbiting the Earth. Examples of debris include non-operational satellites, rocket bodies, and fragments generated from explosions, collisions, or faulty payload assembly.

Loading next visibility...
Identifier
36103, 2009-065C
Orbit
HEO
Country
Flag of CISCIS
Related business
Manufacturer
Khrunichev
Mission
Spacecraft
Bus & Motor
BRIZ TANK, Unknown motor
Mass
~1,000 kg wet, 1,000 kg dry
Launch date (UTC)
2009-11-24 (16 years ago)
Launch vehicle
Unknown
Launch site
Tyuratam Missile And Space Complex (TTMTR)
Object type
Payload
Rocket body
Debris
Shape & HBR
Torus, 2.0 m
Radar Cross Section
8.218 m², Large (>1 m²)

Expand to show TLE details & history
Last TLE update: 6 hours ago

TLE from 6 hours ago
0 BREEZE-M DEB (TANK)
1 36103U 09065C   26037.47405353  .00004778  00000-0  98717-3 0  9993
2 36103  49.3357 152.8087 5216107 221.4231  84.4229  5.25149422301214
Epoch: 2026-02-06T11:22Z
TLE epoch observation values (Epoch: 2026-02-06T11:22:38.224Z)
Latitude
-0.00001°
Longitude
-154.45453°
Altitude
10,351.258 km
Speed
4.376 km/s
True Right ascension
10h 11m 15s
True Declination
0° 00' 00"
Sunlit
Object was in full shadow at epoch
Visualization orbit readout
Latitude
Unknown
Longitude
Unknown
Altitude
Unknown
Speed
Unknown
Apparent Right ascension
Unknown
Apparent Declination
Unknown
Sunlit
N/A
Visualization observer readout
Local Sidereal Time
19:15:45
Azimuth
Unknown
Elevation
Unknown
Doppler factor
Unknown
Orbital elements
Apogee altitude
14,896.981 km
Perigee altitude
310.689 km
Semi-major axis
13,981.972 km
Eccentricity
0.52161
Inclination
49.3357°
RAAN
152.8087°
Arg. of periapsis
221.4231°
True anomaly
138.64557°
Mean anomaly
84.4229°
Eccentric anomaly
112.11105°
Mean motion
1.31278 °/min
Orbital period
274.23 mins
BSTAR
0.00098717
Loading maneuver chart data...
Computing Atmospheric mass density...
Loading historical data...
Loading historical data...
Loading historical data...
Loading historical data...
Loading historical data...
Loading historical data...
Loading historical data...
Other satellites on launch #65 in the year 2009 (2009-11-24 UTC)

Documentation

Showing up to 5 results
|